Regional Weather Roundup
Issued by NWS

Home | Current Version | Previous Version | Graphics & Text | Print | Product List | Glossary On
Versions: 1 2 3 4 5 6 7 8 9 10 11 12 13 14 15 16 17 18 19 20 21 22 23 24 25 26 27 28 29 30 31 32 33 34 35 36 37 38 39 40 41 42 43 44 45 46 47 48 49 50
000
ASUS43 KMPX 091510
RWRMN
WEATHER ROUNDUP FOR MINNESOTA
NATIONAL WEATHER SERVICE TWIN CITIES/CHANHASSEN MN
1000 AM CDT WED JUL 09 2014


NOTE: "FAIR" INDICATES FEW OR NO CLOUDS BELOW 12,000 FEET WITH NO
SIGNIFICANT WEATHER AND/OR OBSTRUCTIONS TO VISIBILITY. N/A MEANS
CURRENT SKY AND/OR WEATHER CONDITIONS ARE NOT AVAILABLE.

MNZ060>063-068>070-091600-
   Twin Cities Metro

CITY           SKY/WX    TMP DP  RH WIND       PRES   REMARKS
TWIN CITIES    PTSUNNY   67  51  56 CALM      30.02R
ST PAUL        PTSUNNY   67  51  56 CALM      30.02R
CRYSTAL        PTSUNNY   68  50  52 CALM      30.00S
BLAINE         PTSUNNY   68  54  60 CALM        N/A
LAKEVILLE      PTSUNNY   64  54  68 CALM      30.02S
EDEN PRAIRIE   PTSUNNY   66  56  70 SW5       30.01S
SOUTH ST PAUL  MOSUNNY   67  49  51 CALM      30.01S
LAKE ELMO      CLOUDY    64  48  55 CALM      30.03R
$$
MNZ001>005-007-008-013>017-022>024-027-028-091600-
   Northwest Minnesota

CITY           SKY/WX    TMP DP  RH WIND       PRES   REMARKS
BEMIDJI        SUNNY     64  53  65 N8        30.01R
HALLOCK        PTSUNNY  N/A N/A N/A N7        30.04R
ROSEAU         PTSUNNY   57  54  88 W3        30.02S
WARROAD        MOSUNNY   63  57  82 CALM      30.02R
THIEF RVR FALL PTSUNNY   63  54  72 NW9       30.03R
CROOKSTON      SUNNY     63  55  77 N9        30.04S
FOSSTON        MOSUNNY   64  54  68 NW8       30.03S
DETROIT LAKES  MOSUNNY   64  55  72 NW8       30.04S
MOORHEAD       SUNNY     64  61  88 VRB8      30.04R
PARK RAPIDS    MOSUNNY   66  53  63 NW10      30.01R
$$
MNZ006-009>011-018-025>026-091600-
   North Central Minnesota

CITY           SKY/WX    TMP DP  RH WIND       PRES   REMARKS
BAUDETTE       SUNNY     65  52  62 N7        30.01R
FLAG ISLAND    SUNNY     59  54  82 NW5       30.00S
INTL FALLS     SUNNY     63  50  62 VRB6      29.99S
WASKISH        SUNNY     64  54  68 CALM      30.00S
BIG FORK       SUNNY     64  50  59 N3        30.00R
LONGVILLE      PTSUNNY   66  55  68 NW5       30.00R
GRAND RAPIDS   MOSUNNY   64  52  63 N7        30.00S
CRANE LAKE     SUNNY     59  46  63 NE3       30.01S
ORR            SUNNY     61  45  55 NW3       29.97S
COOK           SUNNY     61  48  63 NW3       29.99S
$$
MNZ012-019>021-037-091600-
   Northeast Minnesota

CITY           SKY/WX    TMP DP  RH WIND       PRES   REMARKS
DULUTH         MOSUNNY   64  47  53 N7        29.98S
ELY            SUNNY     59  46  63 NW7       29.98S
HIBBING        SUNNY     64  48  56 CALM      29.99S
EVELETH        SUNNY     63  46  55 N3        30.00S
DULUTH HARBOR  SUNNY     64  48  55 CALM      29.99S
TWO HARBORS    SUNNY     63  46  55 NW7       29.96S
SILVER BAY     SUNNY     63  52  67 NW7       29.95S
GRAND MARAIS     N/A     64  47  53 VRB5      29.93R
G MARAIS ARPRT SUNNY     57  45  62 N12G17    29.96R
$$
MNZ029>031-032-039>041-046>048-054>057-064-091600-
   West Central Minnesota

CITY           SKY/WX    TMP DP  RH WIND       PRES   REMARKS
FERGUS FALLS     N/A     64  55  72 N6        30.03R
WHEATON        SUNNY     64  57  77 NW10      30.05R
MORRIS         SUNNY     70  57  64 N9        30.01S
ALEXANDRIA     SUNNY     69  54  58 NW8       30.03R
ELBOW LAKE     FAIR      64  57  77 N7        30.02R
WADENA         MOSUNNY   66  54  63 CALM      30.01S
GLENWOOD       SUNNY     68  57  68 N5        30.02S
APPLETON       SUNNY     72  55  56 NW8       30.02R
BENSON         SUNNY     70  57  64 N6        30.01S
ORTONVILLE     SUNNY     68  57  68 NW7       30.03S
MADISON        SUNNY     72  61  68 NW7       30.03R
WILLMAR        FAIR      66  55  68 NW5       30.02S
$$
MNZ033>034-036-042>043-049>051-058-059-091600-
   Central Minnesota

CITY           SKY/WX    TMP DP  RH WIND       PRES   REMARKS
ST CLOUD       MOSUNNY   68  54  60 SE3       30.00S
SAUK CENTRE    FAIR      68  55  63 E3        30.01S
PAYNESVILLE    SUNNY     66  56  70 CALM      30.01S
AITKIN         MOSUNNY   70  57  64 CALM      29.99R
PINE RIVER     MOSUNNY   66  54  63 N3        30.04R
BRAINERD       MOSUNNY   72  54  53 N7        30.01R
STAPLES        SUNNY     66  52  59 N5        30.01S
LONG PRAIRIE   FAIR      64  54  68 CALM      30.02S
LITTLE FALLS   SUNNY     68  50  52 CALM      30.01S
LITCHFIELD     SUNNY     72  54  53 SE6       30.01S
BUFFALO        SUNNY     67  53  59 SE3       30.02S
MAPLE LAKE     SUNNY     68  58  70 E3        30.02S
$$
MNZ037-044-045-052-053-091600-
   East Central Minnesota

CITY           SKY/WX    TMP DP  RH WIND       PRES   REMARKS
PRINCETON      PTSUNNY   68  55  64 CALM      30.01S
MORA           SUNNY     64  52  63 W3        30.02S
CAMBRIDGE      MOSUNNY   68  54  60 W5        29.99S
RUSH CITY      SUNNY     65  51  60 CALM      30.01S
MOOSE LAKE     SUNNY     64  54  68 CALM      29.98S
HINCKLEY       FAIR      66  54  63 W5        30.00R
CLOQUET        PTSUNNY   64  52  63 W6        29.99S
MCGREGOR       SUNNY     64  54  68 N6        30.00S
$$
MNZ071>073-080-081-089-090-097-098-091600-
   Southwest Minnesota

CITY           SKY/WX    TMP DP  RH WIND       PRES   REMARKS
MONTEVIDEO     SUNNY     72  61  68 NW7       30.03R
GRANITE FALLS  SUNNY     70  56  61 NW8       30.04R
CANBY          MOSUNNY   70  57  61 NW7       30.05S
MARSHALL       MOSUNNY   70  55  60 MISG      30.04R
REDWOOD FALLS  SUNNY     69  57  65 W6        30.02R
OLIVIA         SUNNY     70  57  64 W6        30.01R
PIPESTONE      SUNNY     70  57  64 NW8       30.06R
WINDOM         MOSUNNY   72  57  60 NW6       30.05R
WORTHINGTON    SUNNY     72  57  60 NW7       30.07R
JACKSON        SUNNY     72  54  53 W7        30.05S
TRACY          SUNNY     72  59  62 NW9       30.04S
SLAYTON        SUNNY     71  53  52 CALM      30.06S
$$
MNZ065>067-074>077-082>085-091>093-091600-
   South Central Minnesota

CITY           SKY/WX    TMP DP  RH WIND       PRES   REMARKS
MANKATO        MOSUNNY   66  52  59 W7        30.03S
NEW ULM        SUNNY     68  55  64 SW7       30.02S
ST JAMES       MOSUNNY   72  50  46 S6        30.04S
FAIRMONT       SUNNY     72  48  43 W7        30.04S
GLENCOE        SUNNY     69  51  51 CALM      30.01S
FARIBAULT      PTSUNNY   70  52  52 CALM      30.03S
OWATONNA       PTSUNNY   66  55  68 CALM      30.03S
WASECA         MOSUNNY   64  50  59 SW6       30.05S
ALBERT LEA     MOSUNNY   68  55  64 W5        30.04R
$$
MNZ078>079-086>088-094>096-091600-
   Southeast Minnesota

CITY           SKY/WX    TMP DP  RH WIND       PRES   REMARKS
ROCHESTER      SUNNY     67  54  63 NW5       30.04S
RED WING       PTSUNNY   66  50  55 CALM      30.01S
STANTON        MOSUNNY   68  53  58 CALM      30.01S
DODGE CENTER   SUNNY     66  54  63 CALM      30.03S
WINONA         SUNNY     70  52  52 NW8       30.01R
AUSTIN         SUNNY     66  54  63 CALM      30.03S
PRESTON        SUNNY     66  53  63 N6        30.04R
$$
ABBREVIATIONS USED IN REMARKS
   TC - TEMPERATURES IN CELSIUS
  WCI - WIND CHILL INDEX
   HX - HEAT INDEX
  VSB - VISIBILITY
$$


USA.gov is the U.S. government's official web portal to all federal, state and local government web resources and services.